Cosmos 2263 Rocket - Orbit

View from above orbital plane
View from above orbital plane
View from above satellite
View from above satellite

Ground track
Ground track

The orbit data is extracted from the following two-line orbital elements,

1 22803U 93059B   13144.49126968 -.00000292  00000-0 -12212-3 0   110
2 22803 070.9893 137.6943 0015220 130.7160 229.5288 14.16620744 18015
Epoch (UTC): 24 May 2013 11:47:25
Eccentricity: 0.0015220
inclination: 70.9893°
perigee height: 826 km
apogee height: 848 km
right ascension of ascending node: 137.6943°
argument of perigee: 130.7160°
revolutions per day: 14.16620744
mean anomaly at epoch: 229.5288°
orbit number at epoch: 1801

The dashed part of the orbit path shows where the satellite is in the earth's shadow,  

Developed and maintained by Chris Peat, Heavens-Above GmbH. Please read the updated FAQ before sending e-mail. Imprint. DLR